User: anonymous   Login
Location: Newark
(48.6461°N, 4.3644°W)
Time: 12:26:06
(UTC+00:00)
Language:

STARLINK-1064 - Orbit

View from above orbital plane
View from above orbital plane
View from above satellite
View from above satellite

Ground track
Ground track

The orbit data is extracted from the following two-line orbital elements,

1 44769C 19074BJ  20057.19387549  .00019855  00000-0  13603-2 0   579
2 44769  53.0021  38.4826 0001821  55.3622 147.3871 15.05550734    16
Epoch (UTC): 26 February 2020 04:39:10
Eccentricity: 0.0001821
inclination: 53.0021°
perigee height: 548 km
apogee height: 551 km
right ascension of ascending node: 38.4826°
argument of perigee: 55.3622°
revolutions per day: 15.05550734
mean anomaly at epoch: 147.3871°
orbit number at epoch: 1

The dashed part of the orbit path shows where the satellite is in the earth's shadow,  

DLR